Powrót do katalogu

OPS 9347

IDSCS 25

AktywnyMilitariaMEO
NORAD 3290·PAYLOAD·🇺🇸 United States

Wystrzelony Jun 13, 1968 z Cape Canaveral Space Force Station

Loading…

Następne Przeloty (najbliższe 24 godziny)

TLE

ŚwieżeSource: Space-Track

Epoka: Sep 14, 2026, 06:42 UTC

1 03290U 68050G   26257.27949765 -.00000093  00000-0  00000-0 0  9997
2 03290   7.1544  53.2085 0061861 140.8409 206.7195  1.07035264 48086

Śledź OPS 9347 w czasie rzeczywistym z AllMySat

Download on the App Store